Location: City of Moscow
(46.7306°N, 116.9989°W)
Time: 13:48:55
(UTC+00:00)

CUBEBUG 2 - Pass Details

Date: 25 April 2026
Orbit: 546 x 628 km, 97.9° (Epoch: 15 May)

Event Time Altitude Azimuth Distance (km) Brightness Sun altitude
Rises 10:12:17 0° 14° (NNE) 2,832 ? -21.6°
Reaches altitude 10° 10:14:29 10° 16° (NNE) 1,912 ? -21.4°
Maximum altitude 10:18:38 78° 103° (ESE) 591 ? -20.9°
Enters shadow 10:19:28 55° 175° (S) 692 ? -20.9°
